Tracking 19795 objects as of 20-Jul-2019
HD Live streaming from Space Station
objects crossing your sky now

THOR ABLESTAR R/B

Track THOR ABLESTAR R/B now!
10-day predictions


NORAD ID: 447
Int'l Code: 1962-060B
Perigee: 1,070.6 km
Apogee: 1,169.4 km
Inclination: 50.1 °
Period: 107.5 minutes
Semi major axis: 7490 km
RCS: 3.8837 m2 (large)
Launch date: October 31, 1962
Source: United States (US)
Launch site: AIR FORCE EASTERN TEST RANGE (AFETR)

Note: This is a ROCKET BODY
aabbcc
Your satellite tracking list
Your tracking list is empty




NASA's NSSDC Master Catalog

Two Line Element Set (TLE):
1   447U 62060B   19200.88171670 -.00000122 +00000-0 +10084-4 0  9992
2   447 050.1316 346.4852 0065911 189.6821 333.3771 13.39039779773861
Source of the keplerian elements: AFSPC